TimeEST,TemperatureF,Dew PointF,Humidity,Sea Level PressureIn,VisibilityMPH,Wind Direction,Wind SpeedMPH,Gust SpeedMPH,PrecipitationIn,Events,Conditions,WindDirDegrees,DateUTC
12:53 AM,28.0,23.0,81,30.45,8.0,Calm,Calm,-,N/A,,Clear,0,2012-11-15 05:53:00
1:53 AM,26.1,21.9,84,30.43,7.0,Calm,Calm,-,N/A,,Clear,0,2012-11-15 06:53:00
2:53 AM,26.1,21.9,84,30.43,7.0,Calm,Calm,-,N/A,,Clear,0,2012-11-15 07:53:00
3:53 AM,25.0,21.9,88,30.42,6.0,Calm,Calm,-,N/A,,Clear,0,2012-11-15 08:53:00
4:53 AM,24.1,21.0,88,30.41,7.0,Calm,Calm,-,N/A,,Clear,0,2012-11-15 09:53:00
5:53 AM,24.1,19.9,84,30.41,7.0,Calm,Calm,-,N/A,,Clear,0,2012-11-15 10:53:00
6:53 AM,24.1,21.0,88,30.42,5.0,Calm,Calm,-,N/A,,Clear,0,2012-11-15 11:53:00
7:53 AM,24.1,19.9,84,30.43,5.0,Calm,Calm,-,N/A,,Clear,0,2012-11-15 12:53:00
8:53 AM,28.0,24.1,85,30.43,4.0,Calm,Calm,-,N/A,,Clear,0,2012-11-15 13:53:00
9:53 AM,33.1,28.0,82,30.43,6.0,Calm,Calm,-,N/A,,Haze,0,2012-11-15 14:53:00
10:53 AM,37.0,28.0,70,30.43,10.0,South,3.5,-,N/A,,Clear,170,2012-11-15 15:53:00
11:53 AM,39.9,28.0,63,30.41,10.0,Variable,3.5,-,N/A,,Clear,0,2012-11-15 16:53:00
12:53 PM,42.1,28.9,60,30.39,10.0,South,5.8,-,N/A,,Clear,180,2012-11-15 17:53:00
1:53 PM,42.1,28.0,58,30.38,10.0,SSW,3.5,-,N/A,,Clear,200,2012-11-15 18:53:00
2:53 PM,43.0,28.0,56,30.36,10.0,Calm,Calm,-,N/A,,Clear,0,2012-11-15 19:53:00
3:53 PM,43.0,28.0,56,30.36,10.0,Calm,Calm,-,N/A,,Clear,0,2012-11-15 20:53:00
4:53 PM,42.1,28.0,58,30.37,10.0,SSW,3.5,-,N/A,,Clear,210,2012-11-15 21:53:00
5:53 PM,39.0,28.0,65,30.38,10.0,Calm,Calm,-,N/A,,Clear,0,2012-11-15 22:53:00
6:53 PM,35.1,27.0,72,30.39,10.0,Calm,Calm,-,N/A,,Clear,0,2012-11-15 23:53:00
7:53 PM,33.1,27.0,78,30.39,10.0,Calm,Calm,-,N/A,,Clear,0,2012-11-16 00:53:00
8:53 PM,30.0,24.1,79,30.40,10.0,WSW,3.5,-,N/A,,Clear,240,2012-11-16 01:53:00
9:53 PM,30.0,26.1,85,30.40,9.0,Calm,Calm,-,N/A,,Clear,0,2012-11-16 02:53:00
10:53 PM,28.0,23.0,81,30.40,8.0,Calm,Calm,-,N/A,,Clear,0,2012-11-16 03:53:00
11:53 PM,27.0,21.9,81,30.40,8.0,Calm,Calm,-,N/A,,Clear,0,2012-11-16 04:53:00